Regional Weather Roundup
Issued by NWS

Home | Current Version | Previous Version | Graphics & Text | Print | Product List | Glossary Off
Versions: 1 2 3 4 5 6 7 8 9 10 11 12 13 14 15 16 17 18 19 20 21 22 23 24 25 26 27 28 29 30 31 32 33 34 35 36 37 38 39 40 41 42 43 44 45 46 47 48 49 50

000
ASUS43 KMKX 310700
RWRWI

WISCONSIN REGIONAL WEATHER ROUNDUP
NATIONAL WEATHER SERVICE MILWAUKEE/SULLIVAN WI
200 AM CDT FRI OCT 31 2014

NOTE: "FAIR" INDICATES FEW OR NO CLOUDS BELOW 12,000 FEET WITH NO
SIGNIFICANT WEATHER AND/OR OBSTRUCTIONS TO VISIBILITY.

WIZ001-002-006>008-014>016-023>028-310800-
NORTHWEST WISCONSIN

CITY           SKY/WX    TMP DP  RH WIND       PRES   REMARKS
SUPERIOR ARPT  CLOUDY    31  19  60 N12G18    30.42R WCI  22
ASHLAND        CLOUDY    31  21  66 N17       30.35R WCI  19
HAYWARD        FLURRIES  30  21  69 N13G22    30.33R WCI  20
SIREN          PTCLDY    29  18  62 N12G20    30.38R WCI  19
CUMBERLAND     MOCLDY    30  19  64 N16G23    30.32R WCI  19
RICE LAKE      PTCLDY    30  21  69 NW10G16   30.33R WCI  21
CHETEK         PTCLDY    30  22  72 NW13G20   30.30R WCI  20
LADYSMITH      MOCLDY    31  26  78 N18G28    30.26R WCI  20
EAU CLAIRE     NOT AVBL
MENOMONIE      PTCLDY    32  19  59 NW20G26   30.32R WCI  20
NEW RICHMOND   PTCLDY    29  17  62 N17G25    30.37R WCI  17
OSCEOLA        CLEAR     30  18  61 N13       30.42R WCI  20
$$

WIZ003>005-009-010-017-018-310800-
NORTH CENTRAL WISCONSIN

CITY           SKY/WX    TMP DP  RH WIND       PRES   REMARKS
MANITOWISH WTR FLURRIES  29  26  89 N10G23    30.19R WCI  19
ARBOR VITAE    LGT SNOW  32  28  86 N25G32    30.16R WCI  18
WOODRUFF       LGT SNOW  32  28  86 N25G32    30.16R WCI  18
RHINELANDER    LGT SNOW  29  26  89 N12G29    30.14R FOG     WCI  19
EAGLE RIVER    LGT SNOW  30  28  90 N15G24    30.13R WCI  19
LAND O LAKES   LGT SNOW  31  28  90 N16G25    30.15R WCI  19
PHILLIPS       CLOUDY    29  25  84 N15G25    30.20R WCI  18
TOMAHAWK       LGT SNOW  30  27  87 N18G25    30.15R WCI  18
MEDFORD        LGT SNOW  30  26  88 NW23      30.16R WCI  16
MERRILL        LGT SNOW  31  30  94 N15G26    30.12R WCI  21
$$

WIZ029-030-035-036-043>047-310800-
CENTRAL WISCONSIN

CITY           SKY/WX    TMP DP  RH WIND       PRES   REMARKS
WAUSAU         LGT SNOW  32  29  88 N15G31    30.11R VSB 1   WCI  22
MOSINEE        LGT SNOW  32  30  93 NW17G25   30.11S WCI  21
MARSHFIELD     LGT SNOW  31  27  85 NW22G30   30.16R FOG     WCI  18
STEVENS POINT  MIX PCPN  33  26  75 NW10G23   30.11R WCI  25
WAUPACA        CLOUDY    39  29  67 NW20G25   30.07S WCI  30
WAUTOMA        NOT AVBL
WISC RAPIDS    FLURRIES  34  25  69 NW17G28   30.15R WCI  23
CAMP DOUGLAS   LGT RAIN  34  23  64 NW23G31   30.18R WCI  22
$$

WIZ011>013-019>022-031-037>040-048>050-310800-
NORTHEAST WISCONSIN

CITY           SKY/WX    TMP DP  RH WIND       PRES   REMARKS
ANTIGO         LGT SNOW  32  31  96 N12G18    30.07R WCI  23
SHAWANO        CLOUDY    39  31  72 NW13G18   30.06R WCI  32
OCONTO         CLOUDY    38  32  77 NW12G17   30.02R WCI  31
STURGEON BAY   CLOUDY    39  30  70 N20G25    30.00R WCI  30
GREEN BAY      CLOUDY    39  32  76 NW14      30.04R WCI  31
MANITOWOC      NOT AVBL
APPLETON       CLOUDY    36  30  80 NW17G26   30.05R WCI  25
CLINTONVILLE   CLOUDY    36  30  80 NW13G20   30.06R WCI  27
OSHKOSH        CLOUDY    39  30  70 NW22      30.04S WCI  29
$$

WIZ032>034-041-042-053>061-310800-
SOUTHWEST WISCONSIN

CITY           SKY/WX    TMP DP  RH WIND       PRES   REMARKS
LA CROSSE      MOCLDY    36  18  48 N21G28    30.26R WCI  25
SPARTA         PTCLDY    33  20  57 NW16G22   30.22R WCI  23
VIROQUA        CLOUDY    34  20  57 NW18G25   30.19R WCI  23
BOSCOBEL       CLOUDY    39  23  52 NW12G21   30.20R WCI  32
PRAIRIE DU CHI CLOUDY    40  22  48 N21G33    30.19R WCI  30
PLATTEVILLE    CLOUDY    42  25  51 NW23G30   30.13S
$$

WIZ056-057-062-063-064-067-068-310800-
SOUTH CENTRAL WISCONSIN

CITY           SKY/WX    TMP DP  RH WIND       PRES   REMARKS
REEDSBURG      CLOUDY    36  24  64 NW15G29   30.14R WCI  26
BARABOO/DELLS  CLOUDY    35  26  70 NW15G24   30.12R WCI  25
LONE ROCK      NOT AVBL
MINERAL POINT  CLOUDY    43  28  56 NW22G30   30.11R
MADISON        LGT RAIN  41  29  62 N21G36    30.10R
MIDDLETON      CLOUDY    42  30  62 N13G18    30.09S
WATERTOWN      MOCLDY    40  32  72 NW18G31   30.06R WCI  31
MONROE         CLOUDY    43  30  61 NW12G21   30.08R
JANESVILLE     CLOUDY    45  32  61 NW13G18   30.06R
$$

WIZ051-052-058>065-066-070>072-310800-
SOUTHEAST WISCONSIN

CITY           SKY/WX    TMP DP  RH WIND       PRES   REMARKS
MILWAUKEE      CLOUDY    44  31  60 NW18G25   30.02S
WAUKESHA       CLOUDY    41  32  70 NW17G25   30.03S
MILWAUKEE/TIMM CLOUDY    43  30  61 NW22      30.03S
RACINE         CLOUDY    45  32  60 NW15G24   30.03S
BURLINGTON     CLOUDY    41  33  71 NW13      30.03S
KENOSHA        LGT RAIN  44  35  70 NW8       30.02S
FOND DU LAC    CLOUDY    39  30  70 NW17G24   30.05R WCI  30
SHEBOYGAN      CLOUDY    41  30  65 NW20G25   30.01R
WEST BEND      PTCLDY    39  32  75 NW10G22   30.02S WCI  32
JUNEAU         CLOUDY    39  31  72 NW21G29   30.06S WCI  29
$$

LSZ147-162-310800-
LAKE SUPERIOR

STATION/POSITION TIME  TEMP    WIND        PRES    WAVE
                       AIR SEA DIR/SP/G            HT/PER
                 (UTC) (F)     (DEG/KT/KT) (MB)    (FT/S)
W MID LAKE BUOY  0550   35 44  360/ 27/ 33 1024.9R   9/ 7
DEVILS ISLAND    0600   34      10/ 27/ 30 1027.9R
PORT WING        0600   34     360/ 22/ 29 1028.8R
SAXON HARBOR     0602   37      10/ 23     1026.1R
$$

LMZ867-665-643>646-310800-
LAKE MICHIGAN

STATION/POSITION TIME  TEMP    WIND        PRES    WAVE
                       AIR SEA DIR/SP/G            HT/PER
                 (UTC) (F)     (DEG/KT/KT) (MB)    (FT/S)
CHAMBERS ISLAND  0600   41     310/ 20/ 26 1015.6R
N MID LAKE BUOY  0550   43 51  330/ 19/ 21 1013.6F   3/ 5
NORTHPORT PIER   0600   41     330/ 24/ 29 1014.6R
KEWAUNEE LAKESHO 0600   42     310/ 11/ 18 1014.6R
SHEBOYGAN LAKESH 0600   45 50  310/ 19/ 22 1016.5F
PORT WASHINGTON  0640   44     300/  7/ 18 1016.9S
ATWATER BUOY     0600   47     320/ 14/ 17 1017.2S
MILWAUKEE LAKESH 0600   45     310/  8/ 12   N/A
S MID LAKE BUOY  0550   49 53  300/ 17/ 21 1015.6F   2/ 4
KENOSHA   LAKESH 0600   46     300/ 10/ 13 1016.3S
$$

TC  - TEMPERATURE IN CELSIUS
VSB - VISIBILITY IN STATUTE MILES
WCI - WIND CHILL INDEX
HX  - HEAT INDEX




USA.gov is the U.S. government's official web portal to all federal, state and local government web resources and services.